Total_Precipitation_Accumulation
1.16 1.17 1.16 1.04 1.01 1.02 1.08 1.28 1.53 1.31 0.80 0.59 0.60 0.66 0.73 0.83 1.03 0.95 0.90 0.95 0.99 1.03 1.12 1.14 1.17 1.29 1.60 2.20 3.16 4.52 5.18 4.50 3.57 3.25 3.25 3.49 3.83 4.28
1.08 1.14 1.14 1.08 1.03 1.01 1.07 1.12 1.25 1.42 1.14 0.66 0.59 0.64 0.76 0.80 0.89 0.83 0.86 1.01 1.00 1.01 1.05 1.09 1.15 1.19 1.34 1.62 2.13 2.98 4.20 4.87 4.49 3.83 3.49 3.60 3.81 4.07
1.02 1.05 1.05 1.07 1.10 1.05 1.05 1.08 1.08 1.15 1.14 0.70 0.56 0.59 0.76 0.84 0.81 0.77 0.81 0.87 0.90 1.00 1.01 1.03 1.08 1.16 1.32 1.49 1.76 2.20 2.90 3.88 4.56 4.43 4.03 3.81 3.73 3.77
0.98 0.98 0.97 0.99 1.06 1.01 1.00 0.99 0.96 0.92 0.96 0.79 0.56 0.56 0.64 0.73 0.83 0.89 0.87 0.86 0.84 0.93 0.96 1.04 1.15 1.17 1.24 1.40 1.62 1.92 2.30 2.86 3.57 4.11 4.17 3.95 3.72 3.69
0.98 0.99 0.96 1.00 1.04 0.99 1.00 0.95 0.85 0.80 0.82 0.84 0.66 0.57 0.61 0.66 0.83 0.98 0.96 0.96 0.92 0.94 0.97 1.05 1.13 1.20 1.24 1.32 1.50 1.72 1.93 2.15 2.57 3.31 3.87 3.83 3.69 3.58
0.91 0.90 0.94 1.06 1.08 1.07 1.09 0.98 0.90 0.92 0.93 0.98 0.84 0.70 0.72 0.75 0.92 1.13 1.21 1.15 1.10 1.00 1.03 1.08 1.19 1.28 1.28 1.25 1.28 1.35 1.50 1.82 2.19 2.62 3.24 3.62 3.52 3.46
0.87 0.87 0.94 1.07 1.13 1.28 1.39 1.25 1.21 1.29 1.25 1.26 1.16 1.04 0.98 1.01 1.10 1.13 1.28 1.30 1.29 1.16 1.07 1.01 1.06 1.08 1.14 1.20 1.23 1.24 1.31 1.48 1.79 2.17 2.59 3.07 3.37 3.43
0.92 0.87 0.87 0.99 1.02 1.13 1.30 1.38 1.44 1.55 1.61 1.59 1.52 1.38 1.15 1.06 1.11 1.25 1.32 1.49 1.54 1.26 1.19 1.13 1.09 1.17 1.12 1.12 1.26 1.26 1.28 1.39 1.58 1.87 2.20 2.52 2.91 3.31
0.90 0.88 0.88 0.93 0.99 0.98 1.08 1.12 1.15 1.30 1.53 1.64 1.69 1.34 1.15 1.10 1.30 1.51 1.48 1.55 1.50 1.40 1.50 1.45 1.18 1.20 1.13 1.24 1.40 1.31 1.26 1.30 1.41 1.60 1.88 2.14 2.43 2.78
0.86 0.86 0.85 0.86 0.97 1.17 1.14 1.08 0.99 1.01 1.22 1.42 1.66 1.49 1.32 1.37 1.67 1.99 2.08 1.96 1.57 1.36 1.52 1.70 1.30 1.19 1.21 1.30 1.44 1.36 1.24 1.21 1.26 1.42 1.64 1.84 2.07 2.35
0.85 0.84 0.85 0.84 1.04 1.31 1.26 1.11 0.94 0.85 0.97 1.29 1.59 1.72 1.76 1.88 2.11 2.42 2.58 2.41 1.96 1.44 1.41 1.65 1.50 1.33 1.43 1.58 1.63 1.51 1.26 1.20 1.23 1.30 1.41 1.53 1.75 2.05
0.89 0.85 0.96 1.05 1.20 1.33 1.21 1.17 1.24 1.03 0.92 0.98 1.06 1.18 1.28 1.44 1.80 2.09 2.38 2.45 2.11 1.89 1.56 1.63 1.74 1.73 1.96 1.82 1.69 1.47 1.26 1.22 1.23 1.25 1.26 1.33 1.49 1.55
0.93 0.89 0.87 1.10 1.19 1.25 1.28 1.23 1.45 1.36 1.13 1.14 1.10 1.05 1.05 1.17 1.38 1.68 2.06 2.36 2.37 2.08 1.70 1.94 2.21 2.01 2.07 1.90 1.77 1.67 1.34 1.14 1.12 1.20 1.25 1.29 1.38 1.38
0.89 0.79 0.82 1.04 1.12 1.22 1.21 1.28 1.40 1.37 1.20 1.14 1.05 0.99 1.02 1.08 1.18 1.35 1.67 1.92 2.02 1.88 1.61 1.93 2.48 2.25 2.12 1.82 1.72 1.80 1.58 1.31 1.15 1.12 1.14 1.36 1.39 1.36
0.89 0.97 1.02 1.12 1.12 1.05 1.10 1.21 1.20 1.14 1.24 1.23 1.06 0.96 1.00 1.13 1.19 1.24 1.38 1.65 1.81 1.76 1.68 1.75 2.13 2.24 2.24 2.01 1.66 1.67 1.74 1.62 1.35 1.25 1.19 1.18 1.13 1.09
1.04 1.08 1.15 1.13 1.04 0.94 0.98 1.00 0.97 1.05 1.21 1.22 1.08 0.95 0.94 1.05 1.19 1.28 1.38 1.52 1.73 1.75 1.72 1.77 2.02 2.38 2.36 1.91 1.70 1.63 1.56 1.73 1.60 1.41 1.27 1.18 1.07 0.93
1.25 1.30 1.22 1.12 1.07 0.95 0.85 0.79 0.84 0.98 1.12 1.06 1.04 1.02 0.98 1.01 1.07 1.17 1.38 1.52 1.67 1.70 1.76 1.90 2.05 2.25 2.34 2.26 2.08 1.70 1.48 1.44 1.48 1.45 1.37 1.35 1.27 1.08
1.40 1.32 1.11 0.96 0.93 0.89 0.85 0.82 0.78 0.82 0.89 0.97 1.02 1.03 1.03 1.04 1.06 1.07 1.22 1.46 1.60 1.62 1.68 1.82 1.99 2.20 2.38 2.48 2.29 1.88 1.56 1.41 1.47 1.52 1.45 1.49 1.52 1.32
1.27 1.06 0.89 0.83 0.81 0.81 0.80 0.78 0.75 0.70 0.76 0.85 0.91 0.95 1.00 1.04 1.06 1.08 1.13 1.27 1.45 1.57 1.66 1.74 1.89 2.10 2.27 2.40 2.46 2.11 1.80 1.54 1.52 1.70 1.69 1.58 1.55 1.44
1.04 0.94 0.86 0.79 0.78 0.81 0.82 0.81 0.78 0.74 0.77 0.81 0.83 0.85 0.93 1.03 1.05 1.03 1.06 1.19 1.33 1.45 1.54 1.63 1.81 2.04 2.24 2.21 2.28 2.27 2.15 1.83 1.63 1.75 1.83 1.73 1.64 1.61
0.93 0.91 0.87 0.85 0.84 0.85 0.87 0.87 0.86 0.83 0.79 0.80 0.81 0.80 0.83 0.92 0.96 0.92 0.95 1.07 1.23 1.34 1.42 1.43 1.56 1.79 2.03 2.09 2.04 2.00 2.15 2.17 1.85 1.80 1.87 1.93 1.90 1.84
0.85 0.90 0.90 0.90 0.90 0.92 0.92 0.92 0.91 0.85 0.81 0.82 0.79 0.77 0.78 0.83 0.86 0.88 0.94 0.99 1.04 1.14 1.27 1.34 1.44 1.69 1.99 2.18 2.11 1.95 2.01 2.15 2.17 2.00 1.92 1.97 2.16 2.21
0.96 0.96 0.94 0.94 0.94 0.96 0.97 0.94 0.90 0.83 0.78 0.77 0.77 0.76 0.78 0.81 0.81 0.84 0.88 0.93 0.99 1.04 1.14 1.31 1.44 1.60 1.84 2.03 2.14 2.05 1.93 1.95 2.04 2.08 2.20 2.03 1.69 1.52